Terminal Aerodrome Forecast
Issued by NWS Portland, OR

Home | Current Version | Previous Version | Text Only | Print | Product List | Glossary On
Versions: 1 2 3 4 5 6 7 8 9 10 11 12 13 14 15 16 17 18 19 20 21 22 23 24 25 26 27 28 29 30 31 32 33 34 35 36 37 38 39 40
000
FTUS46 KPQR 242344
TAFTTD
TAF
KTTD 242344Z 2500/2524 02007KT P6SM SCT035 BKN060
     FM250200 32004KT P6SM SCT080
     FM251200 VRB03KT P6SM BKN030
     FM251600 VRB03KT P6SM SCT030=

USA.gov is the U.S. government's official web portal to all federal, state and local government web resources and services.